TimeMDT,TemperatureF,Dew PointF,Humidity,Sea Level PressureIn,VisibilityMPH,Wind Direction,Wind SpeedMPH,Gust SpeedMPH,PrecipitationIn,Events,Conditions,WindDirDegrees,DateUTC
12:53 AM,66.0,24.1,20,29.83,10.0,WNW,3.5,-,N/A,,Clear,290,2012-10-06 06:53:00
1:53 AM,66.9,24.1,20,29.83,10.0,NW,6.9,-,N/A,,Clear,310,2012-10-06 07:53:00
2:53 AM,68.0,25.0,20,29.82,10.0,NW,9.2,-,N/A,,Clear,320,2012-10-06 08:53:00
3:53 AM,68.0,26.1,21,29.79,10.0,WNW,10.4,-,N/A,,Clear,300,2012-10-06 09:53:00
4:53 AM,68.0,26.1,21,29.81,10.0,WSW,6.9,-,N/A,,Clear,240,2012-10-06 10:53:00
5:53 AM,66.0,25.0,21,29.81,10.0,NW,11.5,-,N/A,,Clear,310,2012-10-06 11:53:00
6:53 AM,64.9,25.0,22,29.84,10.0,NW,9.2,-,N/A,,Clear,310,2012-10-06 12:53:00
7:53 AM,64.9,25.0,22,29.87,10.0,NW,9.2,-,N/A,,Clear,310,2012-10-06 13:53:00
8:53 AM,64.9,28.9,26,29.89,10.0,East,3.5,-,N/A,,Clear,90,2012-10-06 14:53:00
9:53 AM,63.0,39.9,43,29.91,10.0,East,3.5,-,N/A,,Clear,100,2012-10-06 15:53:00
10:53 AM,68.0,39.9,36,29.89,10.0,ESE,4.6,-,N/A,,Clear,120,2012-10-06 16:53:00
11:53 AM,77.0,34.0,21,29.86,10.0,SE,8.1,-,N/A,,Clear,140,2012-10-06 17:53:00
12:53 PM,79.0,28.9,16,29.80,10.0,South,9.2,-,N/A,,Clear,170,2012-10-06 18:53:00
1:53 PM,79.0,26.1,14,29.76,10.0,Variable,3.5,-,N/A,,Clear,0,2012-10-06 19:53:00
2:53 PM,82.9,27.0,13,29.71,10.0,Variable,4.6,-,N/A,,Clear,0,2012-10-06 20:53:00
3:53 PM,84.0,26.1,12,29.69,10.0,SSE,12.7,-,N/A,,Clear,160,2012-10-06 21:53:00
4:53 PM,82.9,23.0,11,29.67,10.0,South,12.7,-,N/A,,Clear,170,2012-10-06 22:53:00
5:53 PM,82.0,21.9,11,29.67,10.0,SSW,10.4,18.4,N/A,,Clear,210,2012-10-06 23:53:00
6:53 PM,79.0,24.1,13,29.70,10.0,WSW,16.1,-,N/A,,Clear,250,2012-10-07 00:53:00
7:53 PM,75.9,21.0,13,29.73,10.0,West,11.5,-,N/A,,Clear,270,2012-10-07 01:53:00
8:53 PM,72.0,21.9,15,29.76,10.0,SSW,8.1,-,N/A,,Clear,200,2012-10-07 02:53:00
9:53 PM,71.1,23.0,16,29.78,10.0,West,5.8,-,N/A,,Clear,270,2012-10-07 03:53:00
10:53 PM,70.0,23.0,17,29.79,10.0,Calm,Calm,-,N/A,,Clear,0,2012-10-07 04:53:00
11:53 PM,57.0,37.0,47,29.83,10.0,North,12.7,20.7,N/A,,Clear,10,2012-10-07 05:53:00